Weather History for KIMM - December, 2013

Change the Weather History Date:

Sunday, December 22, 2013

  Actual Average (KFMY) Record (KFMY)
Temperature  
Mean Temperature 76 °F 66 °F  
Max Temperature 89 °F 76 °F 86 °F (1956)
Min Temperature 64 °F 55 °F 35 °F (1960)
Degree Days  
Heating Degree Days 0 3  
Month to date heating degree days 44  
Since 1 July heating degree days 62  
Cooling Degree Days 12 3  
Month to date cooling degree days 94  
Year to date cooling degree days 3957  
Growing Degree Days 26 (Base 50)    
Moisture  
Dew Point 70 °F    
Average Humidity 72    
Maximum Humidity 100    
Minimum Humidity 43    
Precipitation  
Precipitation 0.00 in 0.06 in 2.04 in (1925)
Month to date precipitation 1.15  
Year to date precipitation 55.37  
Sea Level Pressure  
Sea Level Pressure 30.13 in    
Wind  
Wind Speed 5 mph (SE)    
Max Wind Speed 16 mph    
Max Gust Speed 23 mph    
Visibility 9 miles    
Events      
T = Trace of Precipitation, MM = Missing Value Source: NWS Daily Summary

Daily Weather History Graph

Daily Weather History Graph

Search for Another Location

Airport or City:

Trip Planner

Search our weather history database for the weather conditions in past years. The results will help you decide how hot, cold, wet, or windy it might be!

Date:

Astronomy

Dec. 22, 2013 Rise Set
Actual Time 7:09 AM EST 5:38 PM EST
Civil Twilight 6:44 AM EST 6:04 PM EST
Nautical Twilight 6:15 AM EST 6:33 PM EST
Astronomical Twilight 5:47 AM EST 7:01 PM EST
Moon 10:23 PM EST (12/22) 10:29 AM EST (12/22)
Length of Visible Light 11h 19m
Length of Day
10h 28m
Waning Gibbous, 77% of the Moon is Illuminated
Dec 22
Waning Gibbous
Dec 25
Last Quarter
Jan 1
New
Jan 7
First Quarter
Jan 15
Full

Hourly Weather History & Observations

Time (EST) Temp. Heat Index Dew Point Humidity Pressure Visibility Wind Dir Wind Speed Gust Speed Precip Events Conditions
12:15 AM 69.8 °F - - N/A% 30.11 in 10.0 mi Calm Calm - 0.00 in   Clear
12:35 AM 69.8 °F - - N/A% 30.11 in 10.0 mi East 6.9 mph - 0.00 in   Clear
12:55 AM 69.8 °F - - N/A% 30.10 in 10.0 mi ESE 5.8 mph - 0.00 in   Partly Cloudy
1:15 AM 69.8 °F - - N/A% 30.10 in 10.0 mi Calm Calm - 0.00 in   Partly Cloudy
1:35 AM 69.8 °F - - N/A% 30.10 in 9.0 mi Calm Calm - 0.00 in   Clear
1:55 AM 69.8 °F - - N/A% 30.10 in 9.0 mi Calm Calm - 0.00 in   Clear
2:15 AM 69.8 °F - - N/A% 30.10 in 10.0 mi SE 5.8 mph - 0.00 in   Clear
2:35 AM 69.8 °F - - N/A% 30.10 in 10.0 mi SE 5.8 mph - 0.00 in   Clear
2:55 AM 69.8 °F - - N/A% 30.10 in 10.0 mi SE 5.8 mph - 0.00 in   Clear
3:15 AM 69.8 °F - - N/A% 30.09 in 10.0 mi ESE 5.8 mph - 0.00 in   Clear
3:35 AM 69.8 °F - - N/A% 30.09 in 10.0 mi ESE 5.8 mph - 0.00 in   Clear
3:55 AM 69.8 °F - - N/A% 30.09 in 10.0 mi SE 6.9 mph - 0.00 in   Clear
4:15 AM 69.8 °F - - N/A% 30.09 in 10.0 mi SE 5.8 mph - 0.00 in   Clear
4:35 AM 69.8 °F - - N/A% 30.09 in 10.0 mi Calm Calm - 0.00 in   Clear
4:55 AM 68.0 °F - - N/A% 30.10 in 10.0 mi Calm Calm - 0.00 in   Clear
5:15 AM 68.0 °F - - N/A% 30.10 in 9.0 mi Calm Calm - 0.00 in   Clear
5:35 AM 66.2 °F - - N/A% 30.11 in 3.0 mi Calm Calm - 0.00 in   Clear
5:55 AM 66.2 °F - - N/A% 30.11 in 0.8 mi Calm Calm - 0.00 in   Unknown
6:15 AM 64.4 °F - - N/A% 30.12 in 0.2 mi Calm Calm - 0.00 in   Unknown
6:35 AM 64.4 °F - - N/A% 30.12 in 0.2 mi Calm Calm - 0.00 in   Unknown
6:55 AM 66.2 °F - - N/A% 30.12 in 9.0 mi ESE 5.8 mph - 0.00 in   Clear
7:15 AM 66.2 °F - - N/A% 30.12 in 5.0 mi Calm Calm - 0.00 in   Clear
7:35 AM 66.2 °F - - N/A% 30.13 in 3.0 mi East 4.6 mph - 0.00 in   Clear
7:55 AM 66.2 °F - - N/A% 30.14 in 5.0 mi East 5.8 mph - 0.00 in   Clear
8:15 AM 69.8 °F - - N/A% 30.14 in 7.0 mi ESE 5.8 mph - 0.00 in   Clear
8:35 AM 71.6 °F - - N/A% 30.14 in 8.0 mi ESE 9.2 mph - 0.00 in   Clear
8:55 AM 73.4 °F - - N/A% 30.14 in 10.0 mi SE 9.2 mph - 0.00 in   Clear
9:15 AM 75.2 °F - 75.2 °F 100% 30.15 in 10.0 mi SE 12.7 mph - 0.00 in   Clear
9:35 AM 78.8 °F - 78.8 °F 100% 30.16 in 10.0 mi SE 13.8 mph - 0.00 in   Clear
9:55 AM 80.6 °F 88.1 °F 78.8 °F 94% 30.16 in 10.0 mi SE 15.0 mph - 0.00 in   Clear
10:15 AM 82.4 °F 90.9 °F 77.0 °F 84% 30.16 in 10.0 mi SE 15.0 mph - 0.00 in   Clear
10:35 AM 82.4 °F 89.5 °F 75.2 °F 79% 30.16 in 10.0 mi SE 13.8 mph 19.6 mph 0.00 in   Clear
10:55 AM 82.4 °F 89.5 °F 75.2 °F 79% 30.16 in 10.0 mi SSE 15.0 mph - 0.00 in   Partly Cloudy
11:15 AM 84.2 °F 89.6 °F 71.6 °F 66% 30.15 in 10.0 mi South 15.0 mph 23.0 mph 0.00 in   Clear
11:35 AM 86.0 °F 91.8 °F 71.6 °F 62% 30.14 in 10.0 mi SSE 16.1 mph - 0.00 in   Partly Cloudy
11:55 AM 86.0 °F 90.4 °F 69.8 °F 58% 30.14 in 10.0 mi SSE 12.7 mph - 0.00 in   Clear
12:15 PM 86.0 °F 90.4 °F 69.8 °F 58% 30.14 in 10.0 mi SSE 12.7 mph - 0.00 in   Partly Cloudy
12:35 PM 87.8 °F 92.6 °F 69.8 °F 55% 30.13 in 9.0 mi SSE 11.5 mph 17.3 mph 0.00 in   Partly Cloudy
12:55 PM 84.2 °F 87.3 °F 68.0 °F 58% 30.12 in 9.0 mi SSE 8.1 mph - 0.00 in   Scattered Clouds
1:15 PM 84.2 °F 87.3 °F 68.0 °F 58% 30.11 in 10.0 mi SE 9.2 mph - 0.00 in   Scattered Clouds
1:35 PM 89.6 °F 92.2 °F 66.2 °F 46% 30.11 in 10.0 mi SSE 9.2 mph - 0.00 in   Scattered Clouds
1:55 PM 89.6 °F 92.2 °F 66.2 °F 46% 30.09 in 10.0 mi SE 11.5 mph - 0.00 in   Partly Cloudy
2:15 PM 89.6 °F 92.2 °F 66.2 °F 46% 30.09 in 10.0 mi SE 9.2 mph - 0.00 in   Partly Cloudy
2:35 PM 89.6 °F 92.2 °F 66.2 °F 46% 30.09 in 10.0 mi SE 12.7 mph - 0.00 in   Scattered Clouds
2:55 PM 89.6 °F 91.1 °F 64.4 °F 43% 30.09 in 10.0 mi ESE 9.2 mph - 0.00 in   Partly Cloudy
3:15 PM 89.6 °F 91.1 °F 64.4 °F 43% 30.09 in 10.0 mi SE 10.4 mph - 0.00 in   Partly Cloudy
3:35 PM 87.8 °F 89.4 °F 64.4 °F 46% 30.09 in 10.0 mi SSE 8.1 mph - 0.00 in   Clear
3:55 PM 86.0 °F 87.3 °F 64.4 °F 48% 30.09 in 10.0 mi SSE 4.6 mph - 0.00 in   Clear
4:15 PM 87.8 °F 89.4 °F 64.4 °F 46% 30.10 in 10.0 mi SE 9.2 mph - 0.00 in   Partly Cloudy
4:35 PM 82.4 °F 84.6 °F 66.2 °F 58% 30.10 in 10.0 mi SE 9.2 mph - 0.00 in   Clear
4:55 PM 82.4 °F 84.6 °F 66.2 °F 58% 30.10 in 10.0 mi SE 5.8 mph - 0.00 in   Clear
5:15 PM 82.4 °F 84.6 °F 66.2 °F 58% 30.11 in 10.0 mi ESE 6.9 mph - 0.00 in   Clear
5:35 PM 80.6 °F 83.9 °F 69.8 °F 70% 30.11 in 10.0 mi ESE 8.1 mph - 0.00 in   Clear
5:55 PM 78.8 °F - 71.6 °F 78% 30.12 in 10.0 mi ESE 6.9 mph - 0.00 in   Clear
6:15 PM 77.0 °F - 71.6 °F 83% 30.13 in 10.0 mi ESE 5.8 mph - 0.00 in   Clear
6:35 PM 77.0 °F - 71.6 °F 83% 30.13 in 10.0 mi ESE 6.9 mph - 0.00 in   Clear
6:55 PM 75.2 °F - 71.6 °F 89% 30.13 in 10.0 mi SE 6.9 mph - 0.00 in   Clear
7:15 PM 75.2 °F - 73.4 °F 94% 30.14 in 10.0 mi ESE 6.9 mph - 0.00 in   Clear
7:35 PM 75.2 °F - 73.4 °F 94% 30.14 in 10.0 mi ESE 5.8 mph - 0.00 in   Clear
7:55 PM 73.4 °F - 73.4 °F 100% 30.15 in 10.0 mi ESE 8.1 mph - 0.00 in   Clear
8:15 PM 73.4 °F - 73.4 °F 100% 30.15 in 10.0 mi SE 8.1 mph - 0.00 in   Clear
8:35 PM 73.4 °F - 73.4 °F 100% 30.16 in 10.0 mi SE 6.9 mph - 0.00 in   Clear
8:55 PM 73.4 °F - 73.4 °F 100% 30.16 in 10.0 mi ESE 5.8 mph - 0.00 in   Clear
9:15 PM 71.6 °F - 71.6 °F 100% 30.16 in 10.0 mi SE 5.8 mph - 0.00 in   Clear
9:35 PM 71.6 °F - 71.6 °F 100% 30.16 in 10.0 mi ESE 5.8 mph - 0.00 in   Clear
9:55 PM 71.6 °F - - N/A% 30.16 in 10.0 mi ESE 4.6 mph - 0.00 in   Clear
10:15 PM 71.6 °F - - N/A% 30.17 in 10.0 mi ESE 4.6 mph - 0.00 in   Clear
10:35 PM 71.6 °F - - N/A% 30.17 in 10.0 mi Calm Calm - 0.00 in   Clear
10:55 PM 69.8 °F - - N/A% 30.17 in 10.0 mi Calm Calm - 0.00 in   Clear
11:15 PM 69.8 °F - - N/A% 30.17 in 10.0 mi Calm Calm - 0.00 in   Clear
11:35 PM 66.2 °F - - N/A% 30.17 in 6.0 mi Calm Calm - 0.00 in   Clear
11:55 PM 64.4 °F - - N/A% 30.17 in 2.0 mi Calm Calm - 0.00 in   Clear